Date String (YYYY-MM-DD hh:mm:ss) UTC,Instrument flags,Ambient pressure (hPa),Sample flow (lpm),Bypass flow (lpm),Sample temperature (°C),Ambient temperature (°C),ASC tube jacket temperature (°C),LED temperature (°C),Box temperature (°C),Sample RH (%),Span deviation,Mass concentration (μg/m³),Mass concentration (μg/m³),Mass concentration (μg/m³)
DateTimeUTC,F1_M11,P_M11,Q1_M11,Q2_M11,T1_M11,T2_M11,T3_M11,T4_M11,T5_M11,U1_M11,ZSPAN_M11,X2_M11,X0_M11,X1_M11
2023-02-27 01:00:00,,0807.3,4.99,0.00,24.8,23.0,00.0,33.7,26.6,09.7,0000.0,0002.90,0006.87,0001.31
2023-02-27 01:01:00,,0807.3,5.02,0.00,24.8,23.0,00.0,33.7,26.5,10.0,0000.0,0002.94,0007.09,0001.31
2023-02-27 01:02:00,,0807.3,5.02,0.00,24.8,23.0,00.0,33.6,26.5,10.3,0000.0,0002.98,0007.32,0001.31
2023-02-27 01:03:00,,0807.3,5.01,0.00,24.8,22.9,00.0,33.6,26.5,10.5,0000.0,0003.08,0007.49,0001.31
2023-02-27 01:04:00,,0807.3,5.00,0.00,24.7,22.8,00.0,33.6,26.4,10.8,0000.0,0003.12,0007.57,0001.32
2023-02-27 01:05:00,,0807.1,4.99,0.00,24.7,22.7,00.0,33.6,26.3,11.1,0000.0,0003.13,0007.65,0001.33
2023-02-27 01:06:00,,0807.1,5.00,0.00,24.6,22.6,00.0,33.5,26.3,10.6,0000.0,0003.11,0007.66,0001.31
2023-02-27 01:07:00,,0807.1,5.01,0.00,24.6,22.5,00.0,33.5,26.2,10.6,0000.0,0002.99,0007.41,0001.30
2023-02-27 01:08:00,,0807.1,4.99,0.00,24.6,22.5,00.0,33.5,26.2,10.5,0000.0,0002.96,0007.28,0001.30
2023-02-27 01:09:00,,0807.1,5.01,0.00,24.5,22.5,00.0,33.5,26.2,10.3,0000.0,0002.96,0007.28,0001.32
2023-02-27 01:10:00,,0807.1,5.01,0.00,24.5,22.5,00.0,33.4,26.2,10.4,0000.0,0003.00,0007.20,0001.33
2023-02-27 01:11:00,,0807.2,5.02,0.00,24.5,22.5,00.0,33.4,26.2,10.5,0000.0,0003.00,0006.96,0001.34
2023-02-27 01:12:00,,0807.1,5.00,0.00,24.5,22.5,00.0,33.4,26.1,10.9,0000.0,0003.02,0006.88,0001.33
2023-02-27 01:13:00,,0807.1,5.02,0.00,24.4,22.6,00.0,33.4,26.2,10.9,0000.0,0003.03,0006.86,0001.33
2023-02-27 01:14:00,,0807.0,5.00,0.00,24.4,22.6,00.0,33.4,26.1,10.7,0000.0,0003.03,0006.96,0001.33
2023-02-27 01:15:00,,0807.0,5.00,0.00,24.4,22.7,00.0,33.4,26.2,10.6,0000.0,0003.06,0007.00,0001.33
2023-02-27 01:16:00,,0806.9,5.00,0.00,24.4,22.7,00.0,33.4,26.2,10.6,0000.0,0003.04,0006.77,0001.31
2023-02-27 01:17:00,,0806.9,5.00,0.00,24.5,22.7,00.0,33.3,26.2,10.4,0000.0,0003.00,0006.72,0001.31
2023-02-27 01:18:00,,0807.0,4.99,0.00,24.4,22.7,00.0,33.3,26.2,10.3,0000.0,0003.06,0007.28,0001.31
2023-02-27 01:19:00,,0807.0,4.99,0.00,24.4,22.7,00.0,33.3,26.2,10.3,0000.0,0003.04,0008.11,0001.32
2023-02-27 01:20:00,,0807.0,5.03,0.00,24.4,22.7,00.0,33.3,26.2,10.2,0000.0,0003.07,0008.09,0001.32
2023-02-27 01:21:00,,0807.0,4.98,0.00,24.4,22.7,00.0,33.3,26.2,10.2,0000.0,0002.99,0008.01,0001.31
2023-02-27 01:22:00,,0807.0,5.00,0.00,24.4,22.7,00.0,33.3,26.2,10.1,0000.0,0002.96,0008.06,0001.29
2023-02-27 01:23:00,,0806.9,5.00,0.00,24.4,22.7,00.0,33.3,26.2,10.0,0000.0,0002.90,0008.06,0001.29
2023-02-27 01:24:00,,0807.0,4.99,0.00,24.4,22.7,00.0,33.3,26.2,09.9,0000.0,0002.82,0007.96,0001.28
2023-02-27 01:25:00,,0807.0,4.99,0.00,24.4,22.7,00.0,33.3,26.2,10.0,0000.0,0002.80,0007.92,0001.28
2023-02-27 01:26:00,,0806.9,4.99,0.00,24.4,22.6,00.0,33.2,26.1,09.9,0000.0,0002.76,0007.90,0001.28
2023-02-27 01:27:00,,0806.8,5.00,0.00,24.4,22.5,00.0,33.2,26.1,09.7,0000.0,0002.71,0008.20,0001.28
2023-02-27 01:28:00,,0806.9,4.99,0.00,24.3,22.4,00.0,33.2,26.1,09.9,0000.0,0002.71,0008.65,0001.29
2023-02-27 01:29:00,,0806.9,5.00,0.00,24.3,22.4,00.0,33.2,26.0,09.9,0000.0,0002.67,0008.50,0001.28
2023-02-27 01:30:00,,0806.8,5.00,0.00,24.3,22.3,00.0,33.2,26.0,10.1,0000.0,0002.63,0007.58,0001.26
2023-02-27 01:31:00,,0806.8,4.99,0.00,24.2,22.3,00.0,33.1,25.9,10.2,0000.0,0002.59,0007.54,0001.25
2023-02-27 01:32:00,,0806.8,5.00,0.00,24.2,22.3,00.0,33.1,25.9,10.1,0000.0,0002.61,0007.53,0001.25
2023-02-27 01:33:00,,0806.8,5.01,0.00,24.2,22.4,00.0,33.1,25.9,10.1,0000.0,0002.63,0007.50,0001.26
2023-02-27 01:34:00,,0806.8,5.01,0.00,24.2,22.4,00.0,33.1,25.9,10.0,0000.0,0002.70,0007.61,0001.28
2023-02-27 01:35:00,,0806.8,5.00,0.00,24.2,22.3,00.0,33.1,25.8,09.6,0000.0,0002.74,0007.78,0001.28
2023-02-27 01:36:00,,0806.9,5.00,0.00,24.1,22.2,00.0,33.0,25.7,09.9,0000.0,0002.65,0007.59,0001.27
2023-02-27 01:37:00,,0806.8,4.99,0.00,24.1,22.1,00.0,33.0,25.6,10.2,0000.0,0002.65,0007.57,0001.28
2023-02-27 01:38:00,,0806.9,4.99,0.00,24.1,22.1,00.0,33.0,25.7,10.0,0000.0,0002.73,0007.40,0001.28
2023-02-27 01:39:00,,0806.8,4.99,0.00,24.0,22.1,00.0,33.0,25.7,10.1,0000.0,0002.76,0007.85,0001.26
2023-02-27 01:40:00,,0806.8,4.99,0.00,24.0,22.2,00.0,33.0,25.7,09.6,0000.0,0002.75,0007.55,0001.24
2023-02-27 01:41:00,,0806.9,5.00,0.00,24.0,22.1,00.0,32.9,25.7,09.8,0000.0,0002.76,0007.73,0001.23
2023-02-27 01:42:00,,0806.8,5.01,0.00,24.0,22.1,00.0,32.9,25.6,09.6,0000.0,0002.68,0007.62,0001.23
2023-02-27 01:43:00,,0806.9,5.00,0.00,24.0,22.0,00.0,32.9,25.6,09.4,0000.0,0002.62,0007.54,0001.22
2023-02-27 01:44:00,,0806.8,5.01,0.00,24.0,22.1,00.0,32.9,25.6,09.4,0000.0,0002.56,0007.46,0001.21
2023-02-27 01:45:00,,0806.9,4.99,0.00,24.0,22.2,00.0,32.9,25.6,09.7,0000.0,0002.51,0007.57,0001.19
2023-02-27 01:46:00,,0806.9,5.00,0.00,24.0,22.2,00.0,32.9,25.6,09.8,0000.0,0002.47,0007.44,0001.18
2023-02-27 01:47:00,,0806.9,4.97,0.00,24.0,22.2,00.0,32.9,25.6,09.7,0000.0,0002.46,0007.43,0001.17
2023-02-27 01:48:00,,0807.0,5.02,0.00,23.9,22.3,00.0,32.8,25.6,09.9,0000.0,0002.39,0007.38,0001.16
2023-02-27 01:49:00,,0807.1,5.00,0.00,23.9,22.3,00.0,32.8,25.6,10.0,0000.0,0002.34,0007.14,0001.16
2023-02-27 01:50:00,,0807.1,5.01,0.00,23.9,22.3,00.0,32.8,25.6,10.0,0000.0,0002.29,0005.45,0001.16
2023-02-27 01:51:00,,0807.0,5.00,0.00,23.9,22.3,00.0,32.8,25.7,10.1,0000.0,0002.30,0005.58,0001.16
2023-02-27 01:52:00,,0807.1,5.00,0.00,24.0,22.3,00.0,32.8,25.7,10.1,0000.0,0002.31,0005.35,0001.17
2023-02-27 01:53:00,,0807.1,4.99,0.00,24.0,22.3,00.0,32.8,25.7,10.0,0000.0,0002.30,0005.31,0001.17
2023-02-27 01:54:00,,0807.1,5.00,0.00,24.0,22.3,00.0,32.8,25.7,09.9,0000.0,0002.30,0005.32,0001.16
2023-02-27 01:55:00,,0807.1,5.00,0.00,24.0,22.3,00.0,32.8,25.7,09.8,0000.0,0002.36,0005.47,0001.16
2023-02-27 01:56:00,,0807.2,4.99,0.00,24.0,22.4,00.0,32.8,25.7,09.8,0000.0,0002.36,0006.00,0001.16
2023-02-27 01:57:00,,0807.1,5.02,0.00,24.0,22.4,00.0,32.8,25.7,09.8,0000.0,0002.32,0006.15,0001.16
2023-02-27 01:58:00,,0807.1,4.97,0.00,24.0,22.4,00.0,32.8,25.7,09.8,0000.0,0002.39,0006.98,0001.17
2023-02-27 01:59:00,,0807.1,4.99,0.00,24.0,22.4,00.0,32.8,25.8,09.8,0000.0,0002.44,0007.28,0001.18
